DW5212 Weather Reports


time (UTC)temp
F
wind
direction
speed
knots
gust
knots
rain 1hr
in
rain 24hr
in
rain mn
in
humidity
%
barometer
mb
20260502184007 72 30 1.7 5.2 0.00 0.52 0.00 50 1019.6
20260502183505 72 66 1.7 5.2 0.00 0.52 0.00 46 1019.6
20260502183008 72 11 1.7 3.5 0.00 0.52 0.00 52 1019.6
20260502182507 72 25 1.7 3.5 0.00 0.52 0.00 48 1019.6
20260502182007 72 123 1.7 3.5 0.00 0.52 0.00 51 1019.7
20260502181507 72 327 1.7 2.6 0.00 0.52 0.00 51 1019.7
20260502181008 72 45 1.7 3.5 0.00 0.52 0.00 48 1019.8
20260502180507 72 38 1.7 3.5 0.00 0.52 0.00 50 1019.9
20260502170505 69 355 0.9 2.6 0.00 0.55 0.00 59 1020.2
20260502164009 69 19 0.9 2.6 0.00 0.59 0.00 62 1020.5
20260502163010 68 26 0.9 3.5 0.00 0.59 0.00 63 1020.4
20260502162506 68 112 0.9 2.6 0.00 0.59 0.00 63 1020.6
20260502162006 67 17 0.9 3.5 0.00 0.59 0.00 68 1020.5
20260502161508 67 53 0.9 3.5 0.00 0.59 0.00 62 1020.5
20260502161007 67 53 0.9 4.3 0.00 0.59 0.00 65 1020.5
20260502160507 66 35 1.7 4.3 0.00 0.59 0.00 70 1020.4
20260502152008 62 30 0.9 4.3 0.00 0.65 0.00 80 1020.1
20260502151506 62 30 0.0 2.6 0.00 0.65 0.00 84 1020.0
20260502151007 61 22 0.0 0.0 0.00 0.65 0.00 88 1020.0
20260502150506 61 26 0.0 0.0 0.00 0.65 0.00 86 1019.9
20260502130505 52 26 0.9 2.6 0.00 0.87 0.00 96 1018.5
20260502123505 51 45 0.0 0.0 0.00 0.92 0.00 96 1017.9
20260502123008 51 45 0.0 0.0 0.00 0.92 0.00 96 1017.9
20260502122505 51 45 0.0 0.0 0.00 0.92 0.00 96 1017.9
20260502122005 51 45 0.0 0.0 0.00 0.92 0.00 96 1018.0
20260502121506 51 45 0.0 0.0 0.00 0.92 0.00 96 1018.0
20260502121005 51 45 0.0 0.0 0.00 0.92 0.00 96 1017.9
20260502120505 51 45 0.0 0.0 0.00 0.92 0.00 96 1017.8
20260502115505 51 45 0.0 0.0 0.00 0.92 0.00 96 1017.7
20260502115005 51 45 0.0 0.0 0.00 0.92 0.00 96 1017.6
20260502114505 51 45 0.0 0.0 0.00 0.92 0.00 96 1017.5
20260502114007 51 45 0.0 0.0 0.00 0.92 0.00 96 1017.5
20260502113504 51 45 0.0 0.0 0.00 0.92 0.00 96 1017.3
20260502113007 51 45 0.0 0.0 0.00 0.92 0.00 96 1017.3
20260502112505 51 45 0.0 0.0 0.00 0.92 0.00 96 1017.1
20260502112007 51 45 0.0 0.0 0.00 0.92 0.00 96 1017.1
20260502111506 51 45 0.0 0.0 0.00 0.92 0.00 96 1016.9
20260502111005 51 45 0.0 0.0 0.00 0.92 0.00 96 1016.8
20260502110505 51 45 0.0 0.0 0.00 0.92 0.00 96 1016.8
20260502105506 51 45 0.0 0.0 0.00 0.92 0.00 96 1016.8
20260502104506 51 46 0.0 0.0 0.00 0.92 0.00 96 1016.5
20260502104005 52 46 0.0 0.0 0.00 0.92 0.00 96 1016.5
20260502103505 52 45 0.0 0.0 0.00 0.92 0.00 96 1016.4
20260502103007 52 45 0.0 0.0 0.00 0.92 0.00 96 1016.6
20260502102506 52 46 0.0 0.0 0.00 0.92 0.00 96 1016.4
20260502102005 52 45 0.0 0.0 0.00 0.92 0.00 96 1016.3
20260502101505 52 46 0.0 0.0 0.00 0.92 0.00 96 1016.4
20260502101005 52 46 0.0 0.0 0.00 0.92 0.00 96 1016.4
20260502100504 52 46 0.0 0.0 0.00 0.92 0.00 96 1016.4
20260502091505 51 46 0.0 0.0 0.00 0.92 0.00 96 1016.3
20260502091006 51 46 0.0 0.0 0.00 0.92 0.00 96 1016.4
20260502090505 51 45 0.0 0.0 0.00 0.92 0.00 96 1016.5
20260502071505 51 45 0.0 0.0 0.00 0.92 0.00 96 1016.0
20260502071005 51 46 0.0 0.0 0.00 0.92 0.00 96 1016.1
20260502070505 51 45 0.0 0.0 0.00 0.92 0.00 96 1016.0
20260502070009 51 45 0.0 0.0 0.00 0.92 0.00 96 1016.0
20260502065506 51 45 0.0 0.0 0.00 0.92 0.00 96 1016.2
20260502065005 51 46 0.0 0.0 0.00 0.92 0.00 96 1016.3
20260502064005 51 45 0.0 0.0 0.00 0.92 0.00 96 1016.3
20260502062506 51 46 0.0 0.0 0.00 0.92 0.00 96 1016.3
20260502061505 51 46 0.0 0.0 0.00 0.92 0.00 96 1016.5
20260502061007 51 45 0.0 0.0 0.00 0.92 0.00 96 1016.5
20260502060505 51 46 0.0 0.0 0.00 0.92 0.00 96 1016.7
20260502055507 51 45 0.0 0.0 0.00 0.93 0.00 96 1016.8
20260502055006 51 46 0.0 0.0 0.00 0.93 0.00 96 1016.7
20260502054507 51 46 0.0 0.0 0.00 0.93 0.00 96 1016.7
20260502053506 51 45 0.0 0.0 0.01 0.93 0.00 96 1017.0
20260502053008 51 46 0.0 0.0 0.01 0.93 0.00 96 1017.0
20260502052507 51 45 0.0 0.0 0.01 0.93 0.00 96 1016.9
20260502052009 51 45 0.0 0.0 0.01 0.93 0.00 96 1016.7
20260502051510 51 46 0.0 0.0 0.01 0.93 0.00 96 1016.7
20260502051008 51 45 0.0 0.0 0.01 0.93 0.00 96 1017.0
20260502050507 51 45 0.0 0.0 0.02 0.93 0.00 96 1016.8
20260502050018 51 45 0.0 0.0 0.02 0.93 0.00 96 1016.8
20260502045506 51 46 0.0 0.0 0.02 0.95 0.93 96 1016.9
20260502045007 51 46 0.0 0.0 0.03 0.95 0.93 96 1016.8
20260502044509 51 46 0.0 0.0 0.03 0.95 0.93 96 1016.9
20260502044008 51 45 0.0 0.0 0.02 0.94 0.92 96 1017.3
20260502043505 51 46 0.0 0.0 0.03 0.94 0.92 96 1017.0
20260502043009 51 46 0.0 0.0 0.03 0.94 0.92 96 1016.7
20260502042007 51 46 0.0 0.0 0.03 0.94 0.92 96 1017.2
20260502041507 51 45 0.0 0.0 0.04 0.94 0.92 96 1017.3
20260502041007 51 45 0.0 0.0 0.04 0.94 0.92 96 1017.3
20260502040505 50 45 0.0 0.0 0.03 0.93 0.91 96 1017.2
20260502040008 50 45 0.0 0.0 0.04 0.93 0.91 96 1017.1
20260502035506 50 45 0.0 0.0 0.04 0.93 0.91 96 1017.2
20260502035005 50 45 0.0 0.0 0.04 0.92 0.90 96 1016.9
20260502034508 50 45 0.0 0.0 0.04 0.92 0.90 96 1016.8
20260502034006 50 46 0.0 0.0 0.04 0.92 0.90 96 1016.6
20260502033505 50 46 0.0 0.0 0.03 0.91 0.89 96 1016.6
20260502033008 50 46 0.0 0.0 0.03 0.91 0.89 96 1016.8
20260502032505 50 45 0.0 0.0 0.04 0.91 0.89 96 1016.8
20260502031506 50 45 0.0 0.0 0.03 0.90 0.88 95 1016.7
20260502031006 50 45 0.0 0.9 0.03 0.90 0.88 96 1016.5
20260502030505 50 45 0.0 1.7 0.03 0.90 0.88 96 1016.6
20260502030007 50 46 0.0 0.9 0.02 0.90 0.87 95 1016.5
20260502025505 50 46 0.0 0.0 0.02 0.90 0.87 95 1016.5
20260502024506 50 46 0.0 0.0 0.01 0.89 0.86 95 1016.6
20260502024006 50 46 0.0 1.7 0.01 0.89 0.86 95 1016.1
20260502023505 50 46 0.9 1.7 0.01 0.89 0.86 95 1015.7
20260502023007 50 46 0.9 1.7 0.01 0.89 0.86 95 1015.4
20260502022505 50 66 0.9 1.7 0.00 0.88 0.85 95 1015.2
20260502022007 50 24 0.9 1.7 0.00 0.88 0.85 95 1015.8
20260502021006 50 24 0.9 2.6 0.01 0.88 0.85 95 1016.2
20260502020505 50 24 0.9 2.6 0.01 0.88 0.85 95 1016.3
20260502020011 50 25 0.9 2.6 0.01 0.88 0.85 95 1015.9
20260502015506 49 28 0.9 2.6 0.02 0.88 0.85 95 1015.9
20260502015007 49 28 0.9 2.6 0.02 0.88 0.85 95 1015.6
20260502014508 49 69 0.9 3.5 0.02 0.88 0.85 95 1014.9
20260502014007 49 70 1.7 4.3 0.02 0.88 0.85 95 1014.4
20260502013506 49 17 1.7 4.3 0.02 0.88 0.85 95 1014.1
20260502012507 49 54 1.7 4.3 0.02 0.88 0.85 95 1013.9
20260502012007 49 53 0.9 4.3 0.03 0.88 0.85 95 1014.0
20260502011507 49 58 0.9 2.6 0.02 0.87 0.84 95 1014.1
20260502011008 49 38 1.7 2.6 0.02 0.87 0.84 95 1014.2
20260502010506 50 90 0.9 2.6 0.03 0.87 0.84 95 1014.2
20260502005506 50 55 0.9 3.5 0.03 0.86 0.83 95 1014.1
20260502005007 50 62 0.9 3.5 0.04 0.86 0.83 95 1014.2
20260502004507 50 41 0.9 2.6 0.05 0.86 0.83 95 1014.1
20260502004006 50 60 0.9 2.6 0.07 0.86 0.83 95 1014.3
20260502003505 50 150 1.7 2.6 0.08 0.86 0.83 95 1014.3
20260502003008 50 69 1.7 3.5 0.10 0.86 0.83 95 1014.4
20260502002506 50 59 1.7 3.5 0.12 0.86 0.83 95 1014.3
20260502002008 50 36 1.7 3.5 0.12 0.85 0.82 95 1014.5
20260502001507 50 61 1.7 2.6 0.13 0.85 0.82 95 1014.9
20260502001008 50 55 1.7 2.6 0.14 0.85 0.82 95 1015.2
20260502000506 51 37 1.7 2.6 0.14 0.84 0.81 95 1015.3
20260501235508 51 58 1.7 3.5 0.14 0.83 0.80 95 1015.2
20260501235008 51 82 0.9 3.5 0.14 0.82 0.79 95 1015.0
20260501234508 52 217 0.0 1.7 0.13 0.81 0.78 95 1015.2
20260501234008 52 34 0.9 1.7 0.12 0.79 0.76 95 1015.1
20260501233506 52 22 0.0 1.7 0.11 0.78 0.75 96 1014.9
20260501233008 52 20 0.0 0.0 0.10 0.76 0.73 96 1015.0
20260501232007 52 20 0.0 0.0 0.09 0.73 0.70 96 1015.2
20260501231507 52 21 0.0 0.0 0.09 0.72 0.69 95 1014.9
20260501231007 52 22 0.0 0.0 0.09 0.71 0.68 95 1014.8
20260501230011 52 22 0.0 1.7 0.09 0.69 0.66 95 1014.8
20260501225505 52 22 0.9 2.6 0.09 0.69 0.66 95 1014.7
20260501225006 52 24 0.9 2.6 0.09 0.68 0.65 95 1014.3
20260501224506 52 26 0.9 2.6 0.09 0.68 0.65 95 1014.1
20260501224006 52 28 0.0 2.6 0.08 0.67 0.64 95 1014.3
20260501223505 53 24 0.0 0.0 0.08 0.67 0.64 95 1014.5
20260501223008 53 24 0.0 0.0 0.07 0.66 0.63 95 1014.5
20260501222505 53 24 0.0 0.0 0.06 0.65 0.62 95 1014.4
20260501222006 53 24 0.0 0.0 0.05 0.64 0.61 95 1014.3
20260501221505 53 24 0.9 1.7 0.04 0.63 0.60 95 1014.1
20260501221007 53 24 0.9 2.6 0.03 0.62 0.59 95 1013.8
20260501220505 53 24 0.0 2.6 0.02 0.61 0.58 95 1014.0
20260501220009 53 355 0.0 1.7 0.01 0.60 0.57 95 1014.1
20260501215506 53 355 0.0 1.7 0.01 0.61 0.57 95 1013.9
20260501214507 53 25 0.9 2.6 0.00 0.60 0.56 95 1012.9
20260501214006 53 22 1.7 3.5 0.00 0.60 0.56 95 1012.3
20260501213505 53 118 1.7 3.5 0.00 0.60 0.56 95 1011.8
20260501213008 53 17 0.9 6.1 0.00 0.60 0.56 95 1011.9
20260501212507 53 90 1.7 6.1 0.01 0.60 0.56 95 1011.7
20260501212007 53 64 2.6 7.8 0.01 0.60 0.56 95 1011.3
20260501211506 53 89 1.7 7.8 0.01 0.60 0.56 95 1011.3
20260501211007 53 78 1.7 4.3 0.02 0.60 0.56 96 1011.5
20260501210010 53 62 1.7 6.1 0.03 0.60 0.56 95 1011.6
20260501205505 52 105 1.7 6.1 0.03 0.63 0.56 95 1011.7
20260501205006 52 31 1.7 6.1 0.03 0.63 0.56 95 1011.8
20260501204508 52 76 1.7 4.3 0.04 0.63 0.56 95 1011.5
20260501203505 52 49 1.7 3.5 0.06 0.63 0.56 95 1011.4
20260501203011 52 82 1.7 4.3 0.07 0.63 0.56 95 1011.8
20260501202505 52 61 1.7 5.2 0.08 0.62 0.55 95 1012.2
20260501202006 52 42 1.7 7.0 0.09 0.62 0.55 95 1012.4
20260501201506 52 55 1.7 4.3 0.09 0.62 0.55 95 1012.3
20260501201006 52 53 1.7 4.3 0.09 0.61 0.54 95 1012.4
20260501200505 52 65 1.7 6.1 0.09 0.61 0.54 95 1012.3
20260501200010 52 46 1.7 4.3 0.08 0.60 0.53 95 1012.3
20260501195507 52 98 0.9 3.5 0.09 0.61 0.53 95 1012.7
20260501195006 53 44 1.7 3.5 0.09 0.61 0.53 95 1013.3
20260501193009 53 34 0.9 3.5 0.07 0.57 0.49 95 1014.5
20260501192008 53 35 0.9 2.6 0.04 0.54 0.46 95 1014.9
20260501191507 53 39 0.9 3.5 0.04 0.54 0.46 95 1014.9
20260501191007 53 38 1.7 3.5 0.03 0.53 0.45 95 1015.0
20260501190506 53 18 1.7 3.5 0.04 0.53 0.45 95 1015.0
20260501190010 53 50 0.9 3.5 0.04 0.53 0.45 95 1015.0
20260501185507 54 24 0.9 3.5 0.03 0.52 0.44 95 1014.9
20260501185005 54 26 0.9 3.5 0.03 0.52 0.44 95 1014.9
20260501184505 54 31 1.7 2.6 0.02 0.51 0.43 95 1015.0